sat.trackr.live / text

‹ back to catalog

STARLINK-37381

NORAD 68774 · 2026-086J

PAYLOAD ACTIVE UNKNOWN

§ Identity

Operator
Country
US
Launch date
2026-04-19
Launch site
AFWTR
Launch vehicle
Mass (kg)
RCS (m²)

Purposes: comms

External: N2YO · Heavens-Above · Gunter

§ Orbital elements

Epoch: 2026-05-25T04:00:03.998880Z

Period
92.06 min
Inclination
97.2846°
Eccentricity
0.0001419
Mean motion
15.64175216 rev/d
Perigee alt
374.7 km
Apogee alt
376.6 km
Semi-major
6,753.7 km
B*
-2.2821e-2
RAAN
182.0158°
Arg perigee
92.8454°
Mean anomaly
232.1028°
Rev number
607

§ Raw data

STARLINK-373811 68774U 26086J   26145.16671295 -.01914663  00000+0 -22821-1 0  99962 68774  97.2846 182.0158 0001419  92.8454 232.1028 15.64175216  6071

JSON: /api/v1/satellites/68774 · /tle

For live sub-satellite position, see the globe view (requires WebGL).

§ Visibility from observer

Set your observer location to see the next 7 days of passes ≥ 10°. The values pass through the URL so the page stays shareable.

No JS? Fill the form by hand. The geolocation button needs JavaScript.